COSMOS 2080 (GLONASS)

Satellite information

Favourite Embed

Satellite Type and Status

PAYLOADIN ORBIT

Key statistics

Satellite COSMOS 2080 (GLONASS) at a glance.

Uptime

12945

Days in orbit

Revolutions

≈ 2.1

Per day

Orbit

MEO

Medium Earth Orbit

Inclination

64.9

Latest

Satellite identification and parameters

Extended collection of information and parameters for COSMOS 2080 (GLONASS).

Object identification

Identified? True

Debris? False

Object name: COSMOS 2080 (GLONASS)

International designator: 1990-045B

Object number (NORAD): 20620

Object ID (CCSDS): 20620

Country: COMMONWEALTH OF INDEPENDENT STATES (CIS)

Current information (Y/N): Y

RCS size: LARGE

Orbital parameters

Period: 675.73 minutes

Inclination: 64.8533 deg

SMA: 25507.948 km

Apoapsis: 19190.519 km

Periapsis: 19069.107 km

RAAN: 316.4604 deg

Eccentricy: 0.00237988

Argument of periapsis: 28.2987 deg

Mean anomaly: 323.9303 deg

Mean motion: 2.13102954 rev/day

Mean motion (dot): -0.00000021 rev/day2

B* drag term: 0.0 1/REarth

Two-line elements (TLE)

Creation date: Oct. 26, 2025, 10:54 a.m.

Reference frame: TEME

Reference center: EARTH

Epoch: Oct. 26, 2025, 4:44 a.m. UTC

TLE line 0: 0 COSMOS 2080 (GLONASS)

TLE line 1: 1 20620U 90045B 25299.19731902 -.00000021 00000-0 00000-0 0 9991

TLE line 2: 2 20620 64.8533 316.4604 0023799 28.2987 323.9303 2.13102954275612

Live tracking on map

Real-time ground track for satellite COSMOS 2080 (GLONASS).

In-orbit conjunctions

A list of the most updated potential collisions computed for object COSMOS 2080 (GLONASS).

Target Orbit TCA Probability of collision Miss distance Type
SL-12 R/B(2) MEO 2024-07-03 18:57:53 TBA 1269.0 (m) ROCKET BODY

Associated space launch

GLONASS navigation satellites

COSMOS 2080 (GLONASS) was lifted into orbit during the mission ‘Proton | Uragan 36 to 38’, on board a Proton space rocket.

The launch took place on May 19, 1990, 8:32 a.m. from 200/40.

For more information about the launch, click the button.

Launch to space Proton | Uragan 36 to 38
Proton | Uragan 36 to 38

Agency: N/A

Status: Launch Successful

Launch date: May 19, 1990, 8:32 a.m. UTC

Rocket: Proton

Launch pad: 200/40

Location: Baikonur Cosmodrome, Republic of Kazakhstan

...

Latest news about this satellite

There are no fresh news available about this satellite. Check back as we update our databases every day.


Newsletter sign-up

Weekly statistics, charts and insights to help you stay on top of the space industry.